Showing default

KUIPER-00489, 68880

Orbit data source: Space-Track

KUIPER-00489, 68880 is an American payload satellite in LEO that was launched on Tue, 28 Apr 2026 UTC launched from the Air Force Eastern Test Range (AFETR). Payload-class satellites include a variety of spacecraft equipped with specific instruments for various scientific and technological missions. These include communications satellites like Starlink; space stations such as the ISS; scientific satellites like the Hubble; Earth observation satellites from companies like Planet Labs, Umbra, and HawkEye 360; GPS; miniature CubeSats for education and research; and military/defense satellites.

Loading next visibility...
Identifier
68880, 2026-095S
Orbit
LEO
Country
Flag of USUS
Related business
None
Manufacturer
Unknown
Mission
Operational spacecraft
Bus & Motor
Unknown
Mass
Unknown
Launch date (UTC)
2026-04-28 (4 days ago)
Launch vehicle
Unknown
Launch site
Air Force Eastern Test Range (AFETR)
Object type
Payload
Rocket body
Debris
Shape & HBR
Unknown
Radar Cross Section
RCS unknown

Expand to show TLE details & history
Last TLE update: 7 hours ago

TLE from 7 hours ago
0 KUIPER-00489
1 68880U 26095S   26122.16670139 -.00003693  00000-0 -91669-4 0  9996
2 68880  51.8741 104.9449 0010044 133.2561  54.3650 15.36319887  1857
Epoch: 2026-05-02T04:00Z
TLE epoch observation values (Epoch: 2026-05-02T04:00:03.000Z)
Latitude
-6.17593°
Longitude
9.6886°
Altitude
454.779 km
Speed
7.643 km/s
True Right ascension
19h 19m 09s
True Declination
-6° 08' 15"
Sunlit
Object was in daylight at epoch
Visualization orbit readout
Latitude
Unknown
Longitude
Unknown
Altitude
Unknown
Speed
Unknown
Apparent Right ascension
Unknown
Apparent Declination
Unknown
Sunlit
N/A
Visualization observer readout
Local Sidereal Time
18:38:07
Azimuth
Unknown
Elevation
Unknown
Doppler factor
Unknown
Orbital elements
Apogee altitude
464.335 km
Perigee altitude
450.604 km
Semi-major axis
6,835.606 km
Eccentricity
0.001
Inclination
51.8741°
RAAN
104.9449°
Arg. of periapsis
133.2561°
True anomaly
54.45861°
Mean anomaly
54.365°
Eccentric anomaly
54.4118°
Mean motion
3.84041 °/min
Orbital period
93.74 mins
BSTAR
-0.000091669
Loading maneuver chart data...
Computing Atmospheric mass density...
Loading historical data...
Loading historical data...
Loading historical data...
Loading historical data...
Loading historical data...
Loading historical data...
Loading historical data...

Documentation

Showing up to 5 results
|